Regional Weather Roundup
Issued by NWS

Home | Current Version | Previous Version | Text Only | Print | Product List | Glossary On
Versions: 1 2 3 4 5 6 7 8 9 10 11 12 13 14 15 16 17 18 19 20 21 22 23 24 25 26 27 28 29 30 31 32 33 34 35 36 37 38 39 40 41 42 43 44 45 46 47 48 49 50
000
ASUS42 KKEY 211910
RWRKEY

FLORIDA REGIONAL WEATHER ROUNDUP FOR THE FLORIDA KEYS
NATIONAL WEATHER SERVICE KEY WEST FLORIDA
300 PM EDT SAT OCT 21 2017

...SOUTH FLORIDA AND THE KEYS...

CITY           SKY/WX    TMP DP  RH WIND       PRES   REMARKS
FORT MYERS     MOSUNNY   82  72  71 E14G26    30.03F
SW REGIONAL AP MOSUNNY   86  74  67 E21G26    30.03F HX  94
NAPLES         CLOUDY   N/A N/A N/A E18G25    30.02F
MIAMI          CLOUDY    84  75  74 E17G29    30.03F HX  92
WEST KENDALL   PTSUNNY   84  74  71 E21G30    30.02F HX  91
HOMESTEAD      MOSUNNY   85  79  81 NE17      30.02F HX  97
MARATHON       MOSUNNY   87  73  62 E18G26    29.99F HX  94
KEY WEST INTL  CLOUDY    86  76  71 E16G26    29.98F HX  96

...INTERNATIONAL WEATHER...

CITY           SKY/WX    TMP DP  RH WIND       PRES   REMARKS
NASSAU BAHAMAS MOSUNNY   90  75  62 E14       30.02F HAZE    HX 100
CANCUN MEXICO  CLOUDY    86  77  74 E7        29.91F HX  97
COZUMEL MEXICO CLOUDY    84  79  84 E7        29.87F HX  96

ADJACENT COASTAL WATERS...

STATION/POSITION TIME  SKY/WX   TEMP    WIND        PRES    WAVE
                                AIR SEA DIR/SP/G            HT/PER
                 (UTC)          (F)     (DEG/KT/KT) (MB)    (FT/S)
PULASKI SHOAL LI 1900            83      90/ 19/ 21 1015.4F
SAND KEY         1850            83                 1015.8F
LONG KEY         NOT AVBL
MOLASSES REEF    1900            82 83   90/ 20/ 22 1016.1F
FOWEY ROCKS      1900            82 83   70/ 25/ 26 1017.2F
Buoy 42097       1830               83                N/A     6/ 6

$$



USA.gov is the U.S. government's official web portal to all federal, state and local government web resources and services.